カタログに戻る

THORAD AGENA D DEB

運用中SSO
NORAD 42500·DEBRIS·🇺🇸 United States

打ち上げ Apr 8, 1970 から Vandenberg Space Force Base

Loading…

次のパス (今後24時間)

TLE

最新Source: Space-Track

元期: Sep 11, 2026, 10:10 UTC

1 42500U 70025RE  26254.42379896  .00000063  00000-0  15442-3 0  9990
2 42500  99.4250 111.0074 0011049  29.9433  92.2697 13.54046150632556

AllMySatでTHORAD AGENA D DEBをリアルタイム追跡

Download on the App Store